693  
ASUS44 KEWX 262311  
RWRTX  
SOUTH TEXAS REGIONAL WEATHER ROUNDUP  
NATIONAL WEATHER SERVICE AUSTIN/SAN ANTONIO TX  
600 PM CDT THU MAR 26 2015  
 
NOTE: "FAIR" INDICATED FEW OR NO CLOUDS BELOW 12,000 FEET WITH NO  
SIGNIFICANT WEATHER AND/OR S TO VISIBILITY
.  
 
* - THESE STATIONS ARE NOT NWS OR FAA STATIONS...AND ARE NOT SUBJECT  
TO NWS AND FAA QUALITY CONTROL.
 
 
TXZ171-172-183>190-270000-  
TEXAS HILL COUNTRY AND EDWARDS PLATEAU  
 
CITY SKY/WX TMP DP RH WIND PRES REMARKS
 
JUNCTION SUNNY 65 34 31 N15 30.13S  
*LLANO SUNNY 66 32 28 N15G23 30.14S  
BURNET SUNNY 67 32 27 N14G20 30.11R  
*HORSESHOE BAY SUNNY 68 35 29 N12G17 30.10R  
*KERRVILLE SUNNY 64 40 40 N18G24 30.10F  
*FREDERICKSBRG SUNNY 64 37 36 N12G20 30.10F  
*ROCKSPRINGS SUNNY 64 36 34 N14 30.15F  
*BOERNE STAGE SUNNY 64 37 36 N13G22 30.09S  
*CASTROVILLE SUNNY 69 42 37 N10 30.08R  
HONDO SUNNY 71 43 36 N14 30.09F  
*UVALDE SUNNY 71 42 35 N14 30.08S  
DEL RIO SUNNY 73 37 27 NW15G23 30.10F  
LAUGHLIN AFB SUNNY 72 46 39 N18G24 30.11S  
CARRIZO SPRGS PTSUNNY 68 45 42 N9 30.08S  

 
 
TXZ173-191>194-202-209-217>225-228-270000-  
CENTRAL AND SOUTH CENTRAL TEXAS  
 
CITY SKY/WX TMP DP RH WIND PRES REMARKS
 
GEORGETOWN SUNNY 68 37 32 N17G23 30.07R  
AUSTIN/BERGSTM MOSUNNY 68 43 40 N15 30.06R  
AUSTIN/MABRY MOSUNNY 69 38 32 NW13G21 30.08R  
*AUSTIN/EXEC CLOUDY 68 39 34 N18G24 30.08R  
*LAGO VISTA MOSUNNY 67 36 31 N15G24 30.09R  
SAN MARCOS SUNNY 70 43 37 N18G25 30.08S  
NEW BRAUNFELS SUNNY 71 43 36 N20 30.05F  
RANDOLPH AFB SUNNY 69 42 38 N14 30.06S  
PT SAN ANTONIO SUNNY 67 46 45 N15 30.05S  
SAN ANTONIO MOSUNNY 70 43 37 N14G22 30.06F  
STINSON FIELD SUNNY 70 43 37 N18G24 30.04F  
*PLEASANTON SUNNY 69 44 41 N10G21 30.05F  
*LA GRANGE CLOUDY 66 48 52 N14G21 30.05S  
*GIDDINGS CLOUDY 64 46 51 N9 30.10R  
*GONZALES CLOUDY 67 48 50 N14G20 30.04F  

 
 
TXZ163>164-176>182-195>201-210>213-226-227-235-270000-  
SOUTHEAST TEXAS  
 
CITY SKY/WX TMP DP RH WIND PRES REMARKS
 
COLLEGE STN CLOUDY 65 45 48 N13G23 30.03R  
*BRYAN CLOUDY 64 44 48 N13G18 30.04R  
*CALDWELL CLOUDY 64 45 48 NW17G25 30.08R  
*CROCKETT CLOUDY 66 50 55 N13 30.04R  
*BRENHAM CLOUDY 65 49 55 NW13G20 30.05R  
HUNTSVILLE PTSUNNY 63 47 55 N9G20 30.02R  
CONROE PTSUNNY 63 46 54 N13 30.01R  
HOUSTON BUSH PTSUNNY 66 49 54 N14G25 30.01R  
HOUSTON HOBBY PTSUNNY 67 50 54 NW13 29.99R  
*HOUSTON SW AP PTSUNNY 67 54 62 NW9 30.01R  
PEARLAND PTSUNNY 68 50 52 NW9 30.01R  
HOUSTON HOOKS PTSUNNY 65 49 56 N8 30.02R  
ELLINGTON FLD PTSUNNY 66 59 77 NW12 30.00R  
SUGAR LAND PTSUNNY 66 49 54 N13 30.01R  
*HOUSTON EXEC PTSUNNY 64 48 55 N13 30.03S  
*CLEVELAND MUN CLOUDY 62 52 69 N6G20 30.01R  
*WHARTON CLOUDY 62 50 64 N17G24 30.01F  
*COLUMBUS FAIR 63 50 62 N10 30.04F  

 
 
TXZ214>216-236>238-270000-  
THE UPPER TEXAS COAST  
 
CITY SKY/WX TMP DP RH WIND PRES REMARKS
 
*ORANGE CLOUDY 63 50 62 N13G22 29.97R  
PORT ARTHUR CLOUDY 65 53 65 N17 29.95R  
GALVESTON MOSUNNY 66 55 67 NW18 29.99R  
ANGLETON CLOUDY 65 51 60 N12 29.99R  
*BAY CITY CLOUDY 66 54 63 NW14G23 30.02R  
PALACIOS LGT RAIN 64 52 64 N17 29.99R  

 
 
TXZ229>234-239>247-270000-  
TEXAS COASTAL BEND AND RIO GRANDE PLAINS  
 
CITY SKY/WX TMP DP RH WIND PRES REMARKS
 
VICTORIA CLOUDY 63 51 65 N17G24 30.01S  
*BEEVILLE CLOUDY 65 54 67 N12 30.03R  
ROCKPORT TSTM 63 51 65 N21G29 29.95F  
*PORT ARANSAS CLOUDY 65 52 62 N18 29.99R  
*PORT LAVACA LGT RAIN 60 54 81 N16 30.00S  
*INGLESIDE NOT AVBL  
CORPUS CHRISTI TSTM 62 53 72 N20 30.03R  
CORPUS NAS CLOUDY 65 52 62 N20 29.98S THUNDER  
*ROBSTOWN CLOUDY 62 57 83 MISG 30.03R  
ALICE LGT RAIN 63 54 72 N13G25 29.99F  
KINGSVILLE NAS CLOUDY 65 55 70 N15 30.01S  
COTULLA PTSUNNY 69 43 38 N9 30.07S  
*FAITH RANCH PTSUNNY 68 45 42 N10G18 30.10S  
LAREDO PTSUNNY 70 49 47 N12 30.08S  

 
 
TXZ248>255-270000-  
DEEP SOUTH TEXAS  
 
CITY SKY/WX TMP DP RH WIND PRES REMARKS
 
BROWNSVILLE CLOUDY 68 58 70 N13G22 30.00R  
PORT ISABEL CLOUDY 70 58 65 N13 29.99R  
*SOUTH PADRE CLOUDY 64 61 88 N13 30.00R  
HARLINGEN CLOUDY 71 57 61 N20G26 29.99R  
*HEBBRONVILLE NOT AVBL  
MCALLEN CLOUDY 74 56 53 N14 30.01R  
*WESLACO CLOUDY 70 55 58 N14 30.00R  
FALFURRIAS CLOUDY 66 50 56 N16 30.03R  
EDINBURG CLOUDY 75 54 48 N16 30.00S  
*ZAPATA MOSUNNY 68 49 50 N14G21 30.06S  

 
 
TXZ213>215-236>238-242>244-246-247-251-254-255-270000-  
CMAN STATIONS  
 
STATION/POSITION TIME TEMP WIND PRES WAVE
 
AIR SEA DIR/SP/G HT/PER  
(UTC) (F) (DEG/KT/KT) (MB) (FT/S)  

 
 
GMZ080-GMZ150>470-270000-  
OFFSHORE BUOY REPORTS  
 
STATION/POSITION TIME TEMP WIND PRES WAVE
 
AIR SEA DIR/SP/G HT/PER  
(UTC) (F) (DEG/KT/KT) (MB) (FT/S)  

 
 
CLICK HERE TO GO TO PREVIOUS BULLETINS.

The Nexlab TX Page Main Text Page